Back to catalog

STARLINK-32347

AliveCommunicationsVLEO
NORAD 61010·PAYLOAD·🇺🇸 United States

Launched Sep 5, 2024 from Cape Canaveral Space Force Station

Loading…

Next Passes (next 24 hours)

TLE

FreshSource: CelesTrak SupGP

Epoch: Sep 14, 2026, 22:20 UTC

1 61010C 24158W   26257.93104167  .00046808  00000+0  13830-2 0  2570
2 61010  53.1570 263.5611 0001229  91.2152  20.2287 15.34366392    13

Track STARLINK-32347 in real time with AllMySat

Download on the App Store